Tracking 17856 objects as of 28-September-2016
HD Live streaming from Space Station
objects crossing your sky now

GSAT 3 (EDUSAT)

Track GSAT 3 (EDUSAT) now!
GSAT 3 (EDUSAT) is classified as:


NORAD ID: 28417
Int'l Code: 2004-036A
Perigee: -6,371.0 km
Apogee: -6,371.0 km
Inclination: 4.7 °
Period: 0.0 minutes
Semi major axis: 0 km
RCS: 15.8866 m2 (large)
Launch date: September 20, 2004
Source: India (IND)
Launch site: SIRHARIKOTA (SRI)

Interactive education for remote areas of India; 6 C-band and 6 Ku-band transponders; first satellite dedicated to education.
Your satellite tracking list
Your tracking list is empty





NASA's NSSDC Master Catalog

Two Line Element Set (TLE):
1 28417U 04036A   16271.89970755  .00000053  00000-0  00000+0 0  9999
2 28417   4.7012  63.3921 0004436 133.0436 203.1600  0.99263144 43871
Source of the keplerian elements: AFSPC

N2YO: 492